Weather History for Bonaire, Bonaire

Change the Weather History Date:

Monday, July 30, 2012

  Actual Average Record
Temperature  
Mean Temperature 86 °F -  
Max Temperature 90 °F 88 °F 93 °F (2005)
Min Temperature 81 °F 81 °F 77 °F (2011)
Cooling Degree Days 20    
Growing Degree Days 36 (Base 50)    
Moisture  
Dew Point 76 °F    
Average Humidity 74    
Maximum Humidity 89    
Minimum Humidity 55    
Precipitation  
Precipitation 0.00 in - - ()
Sea Level Pressure  
Sea Level Pressure 29.89 in    
Wind  
Wind Speed 11 mph ()    
Max Wind Speed 16 mph    
Max Gust Speed -    
Visibility 8.9 miles    
Events      
Averages and records for this station are not official NWS values.
T = Trace of Precipitation, MM = Missing Value Source: Averaged Metar Reports

Daily Weather History Graph

Daily Weather History Graph

Search for Another Location

Airport:

Trip Planner

Search our weather history database for the weather conditions in past years. The results will help you decide how hot, cold, wet, or windy it might be!

Date:

Astronomy

Jul. 30, 2012 Rise Set
Actual Time 6:19 AM AST 6:59 PM AST
Civil Twilight 5:57 AM AST 7:21 PM AST
Nautical Twilight 5:30 AM AST 7:48 PM AST
Astronomical Twilight 5:04 AM AST 8:14 PM AST
Moon 4:50 PM AST (7/30) 3:40 AM AST (7/30)
Length of Visible Light 13h 24m
Length of Day
12h 39m
Waxing Gibbous, 92% of the Moon is Illuminated
Jul 30
Waxing Gibbous
Aug 1
Full
Aug 9
Last Quarter
Aug 17
New
Aug 24
First Quarter

Hourly Weather History & Observations

Time (AST) Temp. Heat Index Dew Point Humidity Pressure Visibility Wind Dir Wind Speed Gust Speed Precip Events Conditions
12:00 AM 82.4 °F 90.9 °F 77.0 °F 84% 29.92 in - North - - N/A   Unknown
1:00 AM 80.6 °F 87.1 °F 77.0 °F 89% 29.89 in - North - - N/A   Unknown
2:00 AM 81 °F - 76 °F 81%  in - East 13.8 mph - -   Clear
2:00 AM 80.6 °F 87.1 °F 77.0 °F 89% 29.89 in - North - - N/A   Unknown
3:00 AM 80.6 °F 86.2 °F 75.2 °F 84% 29.89 in - North - - N/A   Unknown
4:00 AM 80.6 °F 87.1 °F 77.0 °F 89% 29.89 in - North - - N/A   Unknown
5:00 AM 81 °F - 76 °F 80%  in - East 13.8 mph - -   Clear
5:00 AM 80.6 °F 86.2 °F 75.2 °F 84% 29.89 in - North - - N/A   Unknown
6:00 AM 80.6 °F 86.2 °F 75.2 °F 84% 29.89 in - North - - N/A   Unknown
7:00 AM 82.4 °F 89.5 °F 75.2 °F 79% 29.89 in - North - - N/A   Unknown
8:00 AM 86 °F - 79 °F 75% 29.96 in 22 mi East 12.7 mph - -   Partly Cloudy
8:00 AM 84.2 °F 94.1 °F 77.0 °F 79% 29.92 in 6.2 mi East 12.7 mph - N/A   Scattered Clouds
9:00 AM 86.0 °F 95.1 °F 75.2 °F 70% 29.92 in - East 10.4 mph - N/A   Unknown
10:00 AM 87.8 °F 97.6 °F 75.2 °F 66% 29.92 in 6.2 mi East 16.1 mph - N/A   Partly Cloudy
11:00 AM 91 °F - 83 °F 73% 29.95 in 22 mi ESE 13.8 mph - -   Partly Cloudy
11:00 AM 87.8 °F 97.6 °F 75.2 °F 66% 29.95 in 6.2 mi ESE 13.8 mph - N/A   Scattered Clouds
12:00 PM 87.8 °F 97.6 °F 75.2 °F 66% 29.92 in - ESE 13.8 mph - N/A   Unknown
1:00 PM 89.6 °F 99.8 °F 75.2 °F 62% 29.89 in 6.2 mi ESE 13.8 mph - N/A   Partly Cloudy
2:00 PM 88 °F - 74 °F 56% 29.89 in 22 mi East 12.7 mph - -   Scattered Clouds
2:00 PM 87.8 °F 97.6 °F 75.2 °F 66% 29.86 in 6.2 mi East 12.7 mph - N/A   Partly Cloudy
3:00 PM 89.6 °F 96.2 °F 71.6 °F 55% 29.86 in 6.2 mi ESE 13.8 mph - N/A   Partly Cloudy
4:00 PM 89.6 °F 98.2 °F 73.4 °F 59% 29.83 in 6.2 mi East 10.4 mph - N/A   Partly Cloudy
5:00 PM 89 °F - 75 °F 55% 29.84 in 19 mi East 9.2 mph - -   Scattered Clouds
5:00 PM 89.6 °F 99.8 °F 75.2 °F 62% 29.83 in 6.2 mi East 9.2 mph - N/A   Partly Cloudy
6:00 PM 87.8 °F 97.6 °F 75.2 °F 66% 29.83 in 6.2 mi ENE 10.4 mph - N/A   Partly Cloudy
7:00 PM 84.2 °F 92.3 °F 75.2 °F 74% 29.86 in - ENE 6.9 mph - N/A   Clear
8:00 PM 83 °F - 75 °F 72% 29.89 in 19 mi ENE 4.6 mph - -   Clear
8:00 PM 82.4 °F 89.5 °F 75.2 °F 79% 29.89 in 6.2 mi ESE 13.8 mph - N/A   Partly Cloudy
9:00 PM 82.4 °F 89.5 °F 75.2 °F 79% 29.89 in - Variable 3.5 mph - N/A   Clear
10:00 PM 82.4 °F 90.9 °F 77.0 °F 84% 29.92 in 6.2 mi ESE 13.8 mph - N/A   Partly Cloudy
11:00 PM 82 °F - 76 °F 78%  in 19 mi SE 13.8 mph - -   Clear
11:00 PM 82.4 °F 90.9 °F 77.0 °F 84% 29.95 in - North - - N/A   Unknown